Hourly Data Report for August 08, 2019

QUALICUM BEACH AIRPORT
BRITISH COLUMBIA
Current Station Operator: ECCC - MSC

49°20'14.000" N
124°23'38.000" W
58.20 m
1026562
71766
VOQ

Download Data

Hourly Data (August 2019)
Hourly Data Report for August 8, 2019
TIME
LST
Temp Definition
°C
Dew Point Definition
°C
Rel Hum Definition
%
Precip. Amount Definition
mm

Wind Dir Definition
10's deg

Wind Spd Definition
km/h
Visibility Definition
km
Stn Press Definition
kPa
Hmdx Definition


Wind Chill Definition


Weather Definition


00:00 17.0 16.0 94 0.0 30 6   100.54     LegendNANA
01:00 17.0 14.2 83 0.0 29 6   100.56     LegendNANA
02:00 16.0 13.6 86 0.0 26 2   100.59     LegendNANA
03:00 14.8 13.1 90 0.0 13 2   100.63     LegendNANA
04:00 14.8 12.9 88 0.0 29 2   100.66     LegendNANA
05:00 14.6 12.8 89 0.0 27 3   100.69     LegendNANA
06:00 15.9 12.5 80 0.0 29 5   100.72     LegendNANA
07:00 17.7 12.7 72 0.0 34 2   100.75     LegendNANA
08:00 18.8 12.9 68 0.0 5 4   100.77     LegendNANA
09:00 18.7 14.1 75 0.0 9 10   100.76     LegendNANA
10:00 18.6 14.0 74 0.0 10 13   100.77     LegendNANA
11:00 19.4 14.1 71 0.0 10 14   100.77     LegendNANA
12:00 19.0 14.2 74 0.0 9 11   100.75     LegendNANA
13:00 19.5 13.6 69 0.0 6 10   100.72     LegendNANA
14:00 21.2 14.4 65 0.0 8 8   100.67 25   LegendNANA
15:00 21.4 13.7 61 0.0 9 8   100.63 25   LegendNANA
16:00 21.5 14.1 63 0.0 10 9   100.57 25   LegendNANA
17:00 21.6 14.0 62 0.0 9 10   100.55 25   LegendNANA
18:00 21.0 13.8 63 0.0 9 10   100.54     LegendNANA
19:00 19.0 14.0 73 0.0 9 9   100.56     LegendNANA
20:00 17.6 14.2 80 0.0 9 3   100.59     LegendNANA
21:00 16.6 14.0 85 0.0   0   100.65     LegendNANA
22:00 16.3 14.0 86 0.0 28 3   100.66     LegendNANA
23:00 15.0 13.2 89 0.0 0 1   100.68     LegendNANA

Notes on Data Quality.

Legend

  • E = Estimated
  • M = Missing
  • NA = Not Available*
  • [empty] = Indicates an unobserved value
Date modified: